ARIANE 44LP DEB, 25539

Orbit data source: Space-Track

ARIANE 44LP DEB, 25539 is space debris in HEO originally from a launch on Sun, 11 Dec 1988 UTC launched from the French Guiana (FRGUI). Debris objects in space refer to the collection of defunct objects orbiting the Earth. Examples of debris include non-operational satellites, rocket bodies, and fragments generated from explosions, collisions, or faulty payload assembly.

Loading next visibility...
Identifier
25539, 1988-109F
Orbit
HEO
Country
Flag of FRFR
Related business
Manufacturer
Unknown
Mission
Spacecraft
Bus & Motor
Unknown
Mass
Unknown
Launch date (UTC)
1988-12-11 (37 years ago)
Launch vehicle
Unknown
Launch site
French Guiana (FRGUI)
Object type
Payload
Rocket body
Debris
Shape & HBR
Unknown shape, 0.4 m
Radar Cross Section
Medium (>0.1 m² and <1 m²)

Expand to show TLE details & history
Last TLE update: 3 days ago

TLE from 3 days ago
0 ARIANE 44LP DEB
1 25539U 88109F   25308.22790217  .00000964  00000-0  24272-2 0  9996
2 25539   7.0815  65.9585 6822103  20.9974 356.9037  2.77649108254770
Epoch: 2025-11-04T05:28Z
TLE epoch observation values (Epoch: 2025-11-04T05:28:10.747Z)
Latitude
-0.00013°
Longitude
-59.90849°
Altitude
606.609 km
Speed
9.771 km/s
True Right ascension
04h 23m 25s
True Declination
0° 00' 00"
Sunlit
Object was in full shadow at epoch
Visualization orbit readout
Latitude
Unknown
Longitude
Unknown
Altitude
Unknown
Speed
Unknown
Apparent Right ascension
Unknown
Apparent Declination
Unknown
Sunlit
N/A
Visualization observer readout
Local Sidereal Time
21:57:47
Azimuth
Unknown
Elevation
Unknown
Doppler factor
Unknown
Orbital elements
Apogee altitude
29,601.446 km
Perigee altitude
418.838 km
Semi-major axis
21,388.279 km
Eccentricity
0.68221
Inclination
7.0815°
RAAN
65.9585°
Arg. of periapsis
20.9974°
True anomaly
338.02862°
Mean anomaly
356.9037°
Eccentric anomaly
350.35443°
Mean motion
0.69387 °/min
Orbital period
518.83 mins
BSTAR
0.0024272
Loading maneuver chart data...
Computing Atmospheric mass density...
Loading historical data...
Loading historical data...
Loading historical data...
Loading historical data...
Loading historical data...
Loading historical data...
Loading historical data...

Documentation

Showing up to 5 results
|